Hourly Data Report for October 19, 2015

All times are specified in Local Standard Time (LST). Add 1 hour to adjust for Daylight Saving Time where and when it is observed.

KAMLOOPS A
BRITISH COLUMBIA

50°42'09.000" N
120°26'55.000" W
345.30 m
1163781
71887
YKA

Download Data

Hourly Data (October 2015)
Hourly Data Report for October 19, 2015
Temp Definition
°C
Dew Point Temp Definition
°C
Rel Hum Definition
%
Wind Dir Definition
10's deg

Wind Spd Definition
km/h
Visibility Definition
km
Stn Press Definition
kPa
Hmdx Definition


Wind Chill Definition


Weather Definition


TIME
00:00 Legend Double Dagger 12.5 9.7 83 21 4 64.4 97.10     LegendNANA
01:00 Legend Double Dagger 12.1 9.3 83 27 4 64.4 97.11     Cloudy
02:00 Legend Double Dagger 11.9 9.7 86 25 4 64.4 97.11     LegendNANA
03:00 Legend Double Dagger 10.4 9.0 91 0 1 64.4 97.09     LegendNANA
04:00 Legend Double Dagger 9.7 8.6 93 26 3 64.4 97.10     Mainly Clear
05:00 Legend Double Dagger 8.3 7.2 93 28 9 64.4 97.12     LegendNANA
06:00 Legend Double Dagger 9.3 8.1 92 27 5 64.4 97.13     LegendNANA
07:00 Legend Double Dagger 9.8 8.1 89 28 4 64.4 97.16     Mostly Cloudy
08:00 Legend Double Dagger 10.5 8.1 85 28 10 64.4 97.22     LegendNANA
09:00 Legend Double Dagger 12.4 8.3 76 27 11 64.4 97.24     LegendNANA
10:00 Legend Double Dagger 13.2 7.9 70 29 12 64.4 97.23     Mainly Clear
11:00 Legend Double Dagger 14.5 8.1 65 27 9 64.4 97.17     LegendNANA
12:00 Legend Double Dagger 14.1 8.3 68 28 14 64.4 97.16     LegendNANA
13:00 Legend Double Dagger 14.5 8.5 67 28 19 64.4 97.15     Mostly Cloudy
14:00 Legend Double Dagger 14.7 7.6 62 27 16 64.4 97.17     LegendNANA
15:00 Legend Double Dagger 14.7 8.3 65 26 13 64.4 97.21     Rain Showers
16:00 Legend Double Dagger 13.0 9.7 80 28 17 40.2 97.35     Cloudy
17:00 Legend Double Dagger 12.8 8.9 77 30 11 64.4 97.46     LegendNANA
18:00 Legend Double Dagger 12.4 8.1 75 26 8 64.4 97.56     LegendNANA
19:00 Legend Double Dagger 12.2 7.3 72 26 14 64.4 97.65     Mainly Clear
20:00 Legend Double Dagger 12.8 7.5 70 27 16 64.4 97.75     LegendNANA
21:00 Legend Double Dagger 11.9 6.0 67 24 15 64.4 97.77     LegendNANA
22:00 Legend Double Dagger 8.9 5.5 79 29 20 64.4 97.81     Mainly Clear
23:00 Legend Double Dagger 8.8 5.9 82 26 16 64.4 97.91     LegendNANA

Notes on Data Quality.

Legend

  • E = Estimated
  • M = Missing
  • NA = Not Available
  • ‡ = Partner data that is not subject to review by the National Climate Archives
Date modified: